DECAYED

STARLINK-1332, 45579 (Decayed)

Orbit data source: Space-Track

STARLINK-1332, 45579 was a payload satellite owned by SpaceX/Seattle (US) in LEO that was launched on Wed, 22 Apr 2020 UTC via an FALCON 9 launch vehicle from the Air Force Eastern Test Range (AFETR). Payload-class satellites include a variety of spacecraft equipped with specific instruments for various scientific and technological missions. These include communications satellites like Starlink; space stations such as the ISS; scientific satellites like the Hubble; Earth observation satellites from companies like Planet Labs, Umbra, and HawkEye 360; GPS; miniature CubeSats for education and research; and military/defense satellites.

Not visible in the next 10 days
Identifier
45579, 2020-025BA
Orbit
Decayed
Country
Flag of USUS
Related business
Manufacturer
SpaceX/Seattle
Mission
Decayed Commercial Communications
Bus & Motor
STARLINK, Unknown motor
Mass
260 kg wet, ~248 kg dry
Launch date (UTC)
2020-04-22 (6 years ago)
Launch vehicle
FALCON 9
Launch site
Air Force Eastern Test Range (AFETR)
Object type
Payload
Rocket body
Debris
Shape & HBR
Box + 1 Pan, 10.1 m
Radar Cross Section
13.562 m², Large (>1 m²)

Expand to show TLE details & history
Last TLE update: 1 year ago

TLE from 1 year ago
0 STARLINK-1332
1 45579U 20025BA  25125.88873104  .11004157  12557-4  38647-3 0  9997
2 45579  53.0181 270.8573 0007765 311.2757 190.9456 16.43890752280013
Epoch: 2025-05-05T21:19Z
TLE epoch observation values (Epoch: 2025-05-05T21:19:46.361Z)
Latitude
29.40611°
Longitude
-118.04186°
Altitude
162.048 km
Speed
7.81 km/s
True Right ascension
04h 23m 35s
True Declination
29° 14' 45"
Sunlit
Object was in daylight at epoch
Visualization orbit readout
Latitude
Unknown
Longitude
Unknown
Altitude
Unknown
Speed
Unknown
Apparent Right ascension
Unknown
Apparent Declination
Unknown
Sunlit
N/A
Visualization observer readout
Local Sidereal Time
21:09:03
Azimuth
Unknown
Elevation
Unknown
Doppler factor
Unknown
Orbital elements
Apogee altitude
160.839 km
Perigee altitude
150.692 km
Semi-major axis
6,533.903 km
Eccentricity
0.00078
Inclination
53.0181°
RAAN
270.8573°
Arg. of periapsis
311.2757°
True anomaly
190.92872°
Mean anomaly
190.9456°
Eccentric anomaly
190.93716°
Mean motion
4.10945 °/min
Orbital period
87.6 mins
BSTAR
0.00038647
Loading maneuver chart data...
Computing Atmospheric mass density...

Documentation

Showing up to 5 results
|